EW9543 Weather Reports


time (UTC)temp
C
wind
direction
speed
KPH
gust
KPH
rain 1hr
cm
rain 24hr
cm
rain mn
cm
humidity
%
barometer
mb
20260505153034 11 243 0.0 0.0 0.00 0.00 0.00 90 1013.7
20260505151533 11 244 0.0 0.0 0.00 0.00 0.00 91 1013.5
20260505124522 10 250 0.0 0.0 0.00 0.00 0.00 91 1012.7
20260505123059 10 249 0.0 0.0 0.00 0.00 0.00 91 1012.7
20260505121544 10 251 0.0 0.0 0.00 0.00 0.00 91 1012.6
20260505120032 10 240 0.0 0.0 0.00 0.00 0.00 91 1012.6
20260505114525 10 272 0.0 0.0 0.00 0.00 0.00 91 1012.6
20260505113023 10 281 0.0 0.0 0.00 0.00 0.00 91 1012.5
20260505111516 10 245 0.0 0.0 0.00 0.00 0.00 90 1012.5
20260505101503 10 236 0.0 0.0 0.00 0.00 0.00 91 1012.9
20260505100100 10 214 0.0 0.0 0.00 0.00 0.00 91 1013.0
20260505094555 10 213 0.0 0.0 0.00 0.00 0.00 91 1012.7
20260505093053 10 213 0.0 0.0 0.00 0.00 0.00 91 1013.0
20260505091605 10 247 0.0 0.0 0.00 0.00 0.00 91 1012.6
20260505090051 10 247 0.0 0.0 0.00 0.00 0.00 91 1013.0
20260505084547 10 240 0.0 0.0 0.00 0.00 0.00 91 1013.2
20260505083042 10 240 0.0 0.0 0.00 0.00 0.00 90 1013.5
20260505081540 10 238 0.0 0.0 0.00 0.00 0.00 90 1013.3
20260505080003 10 256 0.0 0.0 0.00 0.00 0.00 90 1013.4
20260505074607 10 236 0.0 0.0 0.00 0.00 0.00 90 1013.6
20260505073057 10 235 0.0 0.0 0.00 0.00 0.00 90 1013.6
20260505071604 10 217 0.0 0.0 0.00 0.00 0.00 90 1013.6
20260505070058 10 118 0.0 0.0 0.00 0.00 0.00 90 1013.4
20260505064554 10 268 0.0 0.0 0.00 0.00 0.00 90 1013.6
20260505063110 10 279 0.0 0.0 0.00 0.00 0.00 90 1013.7
20260505061618 10 269 0.0 0.0 0.00 0.00 0.00 90 1013.8
20260505060100 10 245 0.0 0.0 0.00 0.00 0.00 90 1013.6
20260505054551 10 261 0.0 0.0 0.00 0.00 0.00 90 1013.9
20260505053047 10 245 0.0 0.0 0.00 0.00 0.00 90 1013.8
20260505051608 10 219 0.0 0.0 0.00 0.00 0.00 90 1013.7
20260505041516 10 268 0.0 0.0 0.00 0.00 0.00 89 1013.9
20260505040047 10 268 0.0 0.0 0.00 0.00 0.00 89 1014.5
20260505034544 10 268 0.0 0.0 0.00 0.00 0.00 89 1014.3
20260505033044 10 265 0.0 0.0 0.00 0.00 0.00 89 1013.4
20260505031550 10 268 0.0 0.0 0.00 0.00 0.00 89 1012.9
20260505030039 11 232 0.0 0.0 0.00 0.00 0.00 89 1013.1
20260505024545 11 255 0.0 0.0 0.00 0.00 0.00 89 1013.2
20260505023037 11 248 0.0 0.0 0.00 0.00 0.00 88 1013.3
20260505021537 11 234 0.0 0.0 0.00 0.00 0.00 88 1013.4
20260505020036 11 250 0.0 0.0 0.00 0.00 0.00 88 1013.7
20260505014535 11 243 0.0 0.0 0.00 0.00 0.00 88 1013.6
20260505013030 11 265 0.0 0.0 0.00 0.00 0.00 87 1013.9
20260505011533 11 262 0.0 0.0 0.00 0.00 0.00 87 1014.1
20260505010030 11 263 0.0 0.0 0.00 0.00 0.00 87 1014.1
20260505004528 11 263 0.0 0.0 0.00 0.00 0.00 86 1014.0
20260505003027 11 264 0.0 0.0 0.00 0.00 0.00 86 1013.9
20260505001524 11 264 0.0 0.0 0.00 0.00 0.00 85 1013.8
20260505000025 12 216 0.0 0.0 0.00 0.00 0.00 85 1013.9
20260505000023 12 215 0.0 0.0 0.00 0.00 0.00 85 1013.9
20260504234524 12 213 0.0 0.0 0.00 0.00 0.00 84 1013.7
20260504233023 12 208 0.0 0.0 0.00 0.00 0.00 83 1013.7
20260504231524 12 257 0.0 0.0 0.00 0.00 0.00 83 1013.6
20260504230020 12 171 0.0 0.0 0.00 0.00 0.00 82 1013.8
20260504224521 13 217 0.0 0.0 0.00 0.00 0.00 80 1013.6
20260504223018 13 166 0.0 0.0 0.00 0.00 0.00 76 1013.6
20260504221548 14 201 0.0 0.0 0.00 0.00 0.00 74 1013.9
20260504220048 15 181 0.0 0.0 0.00 0.00 0.00 72 1013.6
20260504214553 15 184 0.0 0.0 0.00 0.00 0.00 70 1013.4
20260504213045 16 182 0.0 6.4 0.00 0.00 0.00 67 1013.4
20260504211543 16 189 0.0 4.8 0.00 0.00 0.00 65 1013.6
20260504210049 16 175 0.0 0.0 0.00 0.00 0.00 66 1013.7
20260504204512 16 180 0.0 0.0 0.00 0.00 0.00 65 1013.6
20260504203020 17 171 0.0 0.0 0.00 0.00 0.00 64 1013.6
20260504201510 18 180 0.0 0.0 0.00 0.00 0.00 61 1013.5
20260504200010 18 161 0.0 0.0 0.00 0.00 0.00 62 1013.5
20260504194508 17 178 0.0 0.0 0.00 0.00 0.00 61 1013.7
20260504193014 18 202 0.0 0.0 0.00 0.00 0.00 61 1013.9
20260504191517 17 150 0.0 0.0 0.00 0.00 0.00 62 1013.8
20260504190007 17 196 0.0 0.0 0.00 0.00 0.00 62 1013.8
20260504184502 18 279 0.0 0.0 0.00 0.00 0.00 61 1014.0
20260504183101 17 165 0.0 0.0 0.00 0.00 0.00 63 1013.9
20260504181530 17 186 0.0 0.0 0.00 0.00 0.00 61 1013.8
20260504180029 16 187 0.0 0.0 0.00 0.00 0.00 64 1013.7
20260504174525 16 178 0.0 0.0 0.00 0.00 0.00 66 1013.8
20260504173021 16 171 0.0 0.0 0.00 0.00 0.00 69 1014.0
20260504171517 15 178 0.0 4.8 0.00 0.00 0.00 75 1013.9